Погода Мыс Ванкерем

Погода Мыс Ванкерем : погода сейчас, прогноз погоды и архив. Всё, что Вы хотите узнать о погоде Мыс Ванкерем!

Поиск расширенной информации на нашем сайте:

Другие новости

Новости СМИ2

Главная страница сайта

Новости сайта

03.07.2017

Напоминаем, что на нашем специализированном сайте Метеоцентр.Азия вы можете получить высокодетализированные автоматические прогнозы погоды по пунктам России, СНГ и мира в авиационном формате (включающие направление и скорость ветра, видимость, явления погоды, количество и форму облачности, нижнюю и верхнюю границу облачности).


Погода Мыс Ванкерем - сегодня

Время (UTC), дата Ветер
(°,м/с) 
Видим.   Явления Облачность Т
(°С)
Тd
(°С)
f(%) Тe
(°С)
Pmin
(гПа)
dP
(гПа)
Po
(мм)
O2
(г/м3)
Тmin Tmax R s Состояние
почвы
21 12.08.18 010 (С) 9{12}  10 км    10/10 200 м 
[Sc]
+5.7 +3.6 86 +2  1012.5  -0.5  759  299           
03 13.08.18 010 (С) 10{16}  4000 м  слаб. морось  10/10 200 м 
[St]
+6.2 +5.5 95 +3  1013.3  0.4  760  298           
09 13.08.18 360 (С) 12{17}  10 км    10/10 200 м 
[St]
+4.9 +3.2 89 +1  1014.3  0.8  760  300           
12 13.08.18 360 (С) 13{18}  10 км    10/10 200 м 
[St]
+4.5 +2.8 89 1015.3  761  301           
15 13.08.18 360 (С) 12{17}  10 км    10/10 200 м 
[St]
+4 +2.2 88 1016.4  1.1  762  302           
18 13.08.18 360 (С) 13{17}  10 км    10/10 200 м 
[St]
+4.2 +2.5 89 1017.6  1.2  763  302  +4        влажная 
21 13.08.18 360 (С) 10{16}  10 км    10/10 200 м 
[St]
+4.9 +3.2 89 +1  1018.3  0.7  763  302           
03 14.08.18 360 (С) 13{18}  10 км    10/10 200 м 
[St]
+4 +2.2 88 -1  1021.3  1.3  766  304           
09 14.08.18 360 (С) 9{16}  10 км  {морось}  10/10 200 м 
[St]
+4 +2.2 88 1022.8  0.5  767  304           
15 14.08.18 330 (СЗ) 6{09}  20000 м    9/8 200 м средняя 
[St|Ac trans]
+3.7 +1.1 83 +1  1023.6  0.3  767  305           
21 14.08.18 270 (З) 3{07}  20000 м    10/5 200 м средняя 
[St|Ac und]
+3 +0.9 86 +2  1023.3  -0.7  767  306           
00 15.08.18 180 (Ю) 2{05}  20000 м    8/0 средняя, верхняя 
[Ac trans|Ci fib]
+5.3 +1.2 75 +5  1021.6  -1.7  766  303           
03 15.08.18 180 (Ю) 2{05}  20000 м    4/0 верхняя 
[Ci fib]
+7.9 +4 76 +8  1019.9  -1.7  764  299           
09 15.08.18 180 (Ю) 3{06}  20000 м    10/0 средняя 
[Ac und]
+5.9 +3.3 83 +5  1017  -1  762  300           
12 15.08.18 200 (Ю) 3{06}  20000 м    10/0 средняя 
[Ac und]
+5.5 +3.1 85 +4  1015.7  -1.3  761  300           
15 15.08.18 230 (ЮЗ) 4{07}  20000 м    9/0 средняя 
[Ac trans]
+5.2 +2.2 81 +4  1014.6  -1.1  761  300           
18 15.08.18 230 (ЮЗ) 4{07}  20000 м    9/0 средняя 
[Ac trans]
+6.1 +2.2 76 +5  1013.3  -1.3  760  299  +5        сухая 
21 15.08.18 230 (ЮЗ) 3{06}  20000 м    9/0 средняя, верхняя 
[Ac trans|Ci fib]
+10.8 +4.3 64 +10  1011.4  -1.9  758  293           
00 16.08.18 250 (З) 6{08}  20000 м    10/4 600 м средняя, верхняя 
[Sc|Ac lent|Ci fib]
+15.7 +7.7 59 +15  1009.8  -1.6  757  287           
03 16.08.18 250 (З) 6{08}  20000 м    10/3 600 м средняя, верхняя 
[Sc|Ac lent|Ci fib]
+15.8 +8.4 61 +15  1008.8  -1  756  287           
09 16.08.18 230 (ЮЗ) 5{07}  20000 м    10/4 600 м средняя, верхняя 
[Sc|Ac lent|Cc]
+9.8 +5.5 75 +9  1006.5  -1.2  754  293           
12 16.08.18 240 (ЮЗ) 5{07}  20000 м    10/3 600 м средняя 
[Sc|Ac lent]
+8 +4.6 79 +6  1005.3  -1.2  754  294           
15 16.08.18 230 (ЮЗ) 4{06}  20000 м    6/1 600 м средняя 
[Sc|Ac lent]
+7.5 +3.6 76 +6  1004.1  -1.2  753  295           
18 16.08.18 230 (ЮЗ) 4{06}  20000 м    4/0 средняя 
[Ac lent]
+8.2 +3.6 73 +7  1003.1  -1  752  294  +7.5        сухая 
21 16.08.18 220 (ЮЗ) 5{08}  20000 м    3/0 верхняя 
[Ci fib]
+12.8 +4.5 57 +12  1002.2  -0.9  751  288           
Время (UTC), дата Ветер
(°,м/с) 
Видим.   Явления Облачность Т
(°С)
Тd
(°С)
f(%) Тe
(°С)
Pmin
(гПа)
dP
(гПа)
Po
(мм)
O2
(г/м3)
Тmin Tmax R s Состояние
почвы

Для получения пояснительной информации подведите курсор к названию столбца.

ПОГОДА Мыс Ванкерем - архив

Всё, что Вы хотите узнать о погоде Мыс Ванкерем - удобно и подробно!

Выберите нужную дату (начиная с 1 января 2015* года) и нажмите кнопку "Найти".
Будут отображены архивные сводки погоды по пункту Мыс Ванкерем, начиная с указанной даты.


Отображать данные в формате CSV (для использования в таблицах Excel)


Внимание! Наш архив погоды предназначен исключительно для личного некоммерческого использования в познавательных целях. Если Вам необходимы официальные справки о состоянии погоды (для производственных, юридических, коммерческих и т.п. целей), обращайтесь в органы Росгидромета.

*Примечание: данная дата относится к архиву по метеостанциям СССР (Россия, СНГ, Балтия).
Архив по метеостанциям Зарубежной Европы и Азии (кроме Китая) хранится 10 дней, по другим регионам земного шара (Китай, Африка, Америка, Австралия, Океания) - 1 день.

Мыс Ванкерем - район местоположения метеостанции


Название, широта, долгота, высота метеостанции:
Мыс Ванкерем 67.83°ш. -175.8°д. 5 м над ур. моря [Российская Федерация]

Дополнительная информация

В oтличие oт бoльшинства пoгoдных сайтoв мы публикуем пoдрoбную метеoинфoрмацию в детальнoм прoфессиoнальнoм фoрмате.

Характеристики температуры и влажнoсти вoздуха измеряются на высoте 2 м в тени вдали oт зданий и деревьев.
Скoрoсть ветра измеряется на высoте 10 м (на урoвне рoста челoвека скoрoсть ветра ниже в 1.5-2 раза). Если метеoстанция нахoдится в гoрoде или в лесу, тo скoрoсть ветра занижена на 2-4 м/с пo сравнению с oткрытым местoм. Скoрoсть ветра над акватoриями крупных рек и oзёр, а также на вершинах хoлмoв на 2-5 м/с выше, чем в oбычных услoвиях.
Атмoсфернoе давление в разных тoчках местнoсти мoжет значительнo oтличаться oт давления на метеoстанции, в зависимoсти oт услoвий рельефа (при пoдъёме на 10 м давление пoнижается примернo на 1 мм рт.ст.).